This is the latest recevied weather packets stored in our database for station/object N3WMC. If no packets are shown the sender has not sent any weather packets the latest 10 day(s).
| Time | Temp. | Humidity | Pressure | Rain* | Wind** | Luminosity | Snow |
|---|---|---|---|---|---|---|---|
| 1777549881 | 9.44° C | 90% | 1010.5 hPa | 0 mm | - | 27 W/m² | - |
| 1777549577 | 9.44° C | 91% | 1010.4 hPa | 0 mm | - | 65 W/m² | - |
| 1777549273 | 8.89° C | 91% | 1010.3 hPa | 0 mm | - | 44 W/m² | - |
| 1777548969 | 8.89° C | 91% | 1010.5 hPa | 0 mm | - | 30 W/m² | - |
| 1777548661 | 8.89° C | 92% | 1010.5 hPa | 0 mm | - | 16 W/m² | - |
| 1777548357 | 8.89° C | 92% | 1010.3 hPa | 0 mm | - | 22 W/m² | - |
| 1777548055 | 8.89° C | 92% | 1010.4 hPa | 0 mm | - | 28 W/m² | - |
| 1777547750 | 8.89° C | 92% | 1010.3 hPa | 0 mm | - | 31 W/m² | - |
| 1777547447 | 8.89° C | 92% | 1010.5 hPa | 0 mm | - | 23 W/m² | - |
| 1777547144 | 8.89° C | 92% | 1010.3 hPa | 0 mm | - | 19 W/m² | - |
| 1777546841 | 8.89° C | 92% | 1010.6 hPa | 0 mm | - | 16 W/m² | - |
| 1777546538 | 8.89° C | 92% | 1010.5 hPa | 0 mm | - | 13 W/m² | - |
| 1777546235 | 8.89° C | 92% | 1010.4 hPa | 0 mm | - | 9 W/m² | - |
| 1777545932 | 8.89° C | 92% | 1010.6 hPa | 0 mm | - | 6 W/m² | - |
| 1777545628 | 8.89° C | 92% | 1010.7 hPa | 0 mm | - | 4 W/m² | - |
| 1777545325 | 8.89° C | 92% | 1010.6 hPa | 0 mm | - | 4 W/m² | - |
| 1777545023 | 8.89° C | 92% | 1010.5 hPa | 0 mm | - | 2 W/m² | - |
| 1777544719 | 8.89° C | 92% | 1010.7 hPa | 0 mm | - | 2 W/m² | - |
| 1777544415 | 8.89° C | 92% | 1010.7 hPa | 0 mm | - | 1 W/m² | - |
| 1777544111 | 8.89° C | 92% | 1010.6 hPa | 0 mm | - | 0 W/m² | - |
| 1777543809 | 8.89° C | 92% | 1010.8 hPa | 0 mm | - | 0 W/m² | - |
| 1777543504 | 8.89° C | 92% | 1010.7 hPa | 0 mm | - | 0 W/m² | - |
| 1777543201 | 8.89° C | 92% | 1010.8 hPa | 0 mm | - | 0 W/m² | - |
| 1777542897 | 8.89° C | 92% | 1010.9 hPa | 0 mm | - | 0 W/m² | - |
| 1777542593 | 8.89° C | 92% | 1010.6 hPa | 0 mm | - | 0 W/m² | - |
* Rain latest hour (hover to see other rain measurements)
** Current wind speed in m/s (hover to see current wind gust speed)